When you browse on this site, cookies collect data to enhance your experience and personalize the content and advertising you see.
Visit our Privacy Policy to learn more. By continuing to use the site, you agree to this use of cookies and data.
  • In Lithuania
  • List of Countries
  • For 7 days
  • Water Temperature
  • Weather Map
  • Weather Widgets
  • user-avatar
    Login

    Hourly Weather Thunder Bay

    Today, 5 June, Friday

    Time Temperature Precipitation Wind Pressure Humidity
    00:00 +14°C° 0 mm 3 mps 730 mmHg 50%
    01:00 +13°C° 0 mm 3 mps 730 mmHg 53%
    02:00 +14°C° 0 mm 2 mps 731 mmHg 55%
    03:00 +13°C° 0 mm 2 mps 731 mmHg 58%
    04:00 +13°C° 2.2 mm 2 mps 731 mmHg 71%
    05:00 +12°C° 2.2 mm 2 mps 732 mmHg 84%
    06:00 +12°C° 2.2 mm 2 mps 732 mmHg 98%
    07:00 +13°C° 0.3 mm 2 mps 732 mmHg 89%
    08:00 +15°C° 0.3 mm 1 mps 732 mmHg 80%
    09:00 +18°C° 0.3 mm 1 mps 732 mmHg 71%
    10:00 +18°C° 0.5 mm 2 mps 732 mmHg 69%
    11:00 +19°C° 0.5 mm 4 mps 732 mmHg 67%
    12:00 +20°C° 0.5 mm 5 mps 732 mmHg 65%
    13:00 +19°C° 0.3 mm 5 mps 732 mmHg 64%
    14:00 +17°C° 0.3 mm 5 mps 732 mmHg 63%
    15:00 +17°C° 0.3 mm 5 mps 732 mmHg 62%
    16:00 +17°C° 0 mm 5 mps 732 mmHg 58%
    17:00 +17°C° 0 mm 5 mps 733 mmHg 54%
    18:00 +17°C° 0 mm 5 mps 733 mmHg 51%
    19:00 +15°C° 0 mm 5 mps 734 mmHg 58%
    20:00 +14°C° 0 mm 4 mps 734 mmHg 66%
    21:00 +12°C° 0 mm 4 mps 735 mmHg 73%
    22:00 +11°C° 0 mm 4 mps 735 mmHg 78%
    23:00 +11°C° 0 mm 4 mps 736 mmHg 83%

    Tomorrow, 6 June, Saturday

    Time Temperature Precipitation Wind Pressure Humidity
    00:00 +10°C° 0 mm 4 mps 736 mmHg 88%
    01:00 +10°C° 0 mm 3 mps 737 mmHg 89%
    02:00 +9°C° 0 mm 3 mps 738 mmHg 89%
    03:00 +8°C° 0 mm 3 mps 738 mmHg 90%
    04:00 +8°C° 0 mm 3 mps 739 mmHg 86%
    05:00 +9°C° 0 mm 3 mps 739 mmHg 82%
    06:00 +9°C° 0 mm 3 mps 740 mmHg 78%
    07:00 +11°C° 0 mm 3 mps 740 mmHg 69%
    08:00 +14°C° 0 mm 2 mps 740 mmHg 60%
    09:00 +16°C° 0 mm 2 mps 741 mmHg 51%
    10:00 +17°C° 0 mm 2 mps 741 mmHg 49%
    11:00 +18°C° 0 mm 2 mps 741 mmHg 46%
    12:00 +18°C° 0 mm 2 mps 741 mmHg 44%
    13:00 +18°C° 0 mm 3 mps 741 mmHg 45%
    14:00 +18°C° 0 mm 3 mps 740 mmHg 47%
    15:00 +17°C° 0 mm 4 mps 740 mmHg 48%
    16:00 +16°C° 0 mm 3 mps 740 mmHg 51%
    17:00 +16°C° 0 mm 3 mps 739 mmHg 54%
    18:00 +14°C° 0 mm 3 mps 739 mmHg 56%
    19:00 +13°C° 0 mm 2 mps 739 mmHg 62%
    20:00 +11°C° 0 mm 1 mps 740 mmHg 68%
    21:00 +9°C° 0 mm 1 mps 740 mmHg 73%
    22:00 +9°C° 0 mm 1 mps 740 mmHg 73%
    23:00 +9°C° 0 mm 1 mps 740 mmHg 73%

    Day after tomorrow, 7 June, Sunday

    Time Temperature Precipitation Wind Pressure Humidity
    00:00 +8°C° 0 mm 1 mps 740 mmHg 72%
    01:00 +8°C° 0 mm 1 mps 740 mmHg 73%
    02:00 +8°C° 0 mm 1 mps 740 mmHg 74%
    03:00 +7°C° 0 mm 1 mps 740 mmHg 75%
    04:00 +7°C° 0 mm 2 mps 740 mmHg 73%
    05:00 +8°C° 0 mm 2 mps 740 mmHg 71%
    06:00 +8°C° 0 mm 3 mps 741 mmHg 68%
    07:00 +9°C° 0 mm 3 mps 740 mmHg 69%
    08:00 +8°C° 0 mm 4 mps 740 mmHg 69%
    09:00 +8°C° 0 mm 5 mps 739 mmHg 70%
    10:00 +7°C° 0.6 mm 4 mps 739 mmHg 77%
    11:00 +7°C° 0.6 mm 4 mps 739 mmHg 85%
    12:00 +6°C° 0.6 mm 4 mps 739 mmHg 93%
    13:00 +7°C° 0.1 mm 4 mps 738 mmHg 87%
    14:00 +8°C° 0.1 mm 5 mps 738 mmHg 81%
    15:00 +9°C° 0.1 mm 5 mps 737 mmHg 74%
    16:00 +9°C° 0.2 mm 5 mps 737 mmHg 77%
    17:00 +8°C° 0.2 mm 5 mps 737 mmHg 79%
    18:00 +8°C° 0.2 mm 6 mps 736 mmHg 82%
    19:00 +7°C° 0.3 mm 5 mps 736 mmHg 85%
    20:00 +7°C° 0.3 mm 4 mps 736 mmHg 88%
    21:00 +7°C° 0.3 mm 3 mps 736 mmHg 92%
    22:00 +7°C° 0.3 mm 3 mps 736 mmHg 92%
    23:00 +8°C° 0.3 mm 2 mps 735 mmHg 93%

    8 June, Monday

    Time Temperature Precipitation Wind Pressure Humidity
    00:00 +8°C° 0.3 mm 2 mps 735 mmHg 94%
    01:00 +8°C° 0 mm 3 mps 734 mmHg 94%
    02:00 +9°C° 0 mm 3 mps 734 mmHg 94%
    03:00 +8°C° 0 mm 4 mps 734 mmHg 94%
    04:00 +10°C° 0.5 mm 3 mps 734 mmHg 95%
    05:00 +10°C° 0.5 mm 2 mps 734 mmHg 96%
    06:00 +12°C° 0.5 mm 2 mps 734 mmHg 97%
    07:00 +12°C° 0.1 mm 3 mps 733 mmHg 94%
    08:00 +14°C° 0.1 mm 4 mps 733 mmHg 91%
    09:00 +15°C° 0.1 mm 4 mps 733 mmHg 88%
    10:00 +17°C° 0 mm 5 mps 732 mmHg 81%
    11:00 +20°C° 0 mm 5 mps 732 mmHg 74%
    12:00 +22°C° 0 mm 6 mps 732 mmHg 68%
    13:00 +23°C° 0 mm 5 mps 731 mmHg 67%
    14:00 +25°C° 0 mm 5 mps 731 mmHg 67%
    15:00 +26°C° 0 mm 4 mps 731 mmHg 66%
    16:00 +25°C° 0 mm 3 mps 730 mmHg 71%
    17:00 +22°C° 0 mm 3 mps 730 mmHg 76%
    18:00 +21°C° 0 mm 2 mps 730 mmHg 82%
    19:00 +20°C° 0.2 mm 2 mps 730 mmHg 85%
    20:00 +19°C° 0.2 mm 2 mps 730 mmHg 87%
    21:00 +17°C° 0.2 mm 2 mps 730 mmHg 90%
    22:00 +17°C° 0.3 mm 2 mps 730 mmHg 93%
    23:00 +17°C° 0.3 mm 2 mps 730 mmHg 96%

    9 June, Tuesday

    Time Temperature Precipitation Wind Pressure Humidity
    00:00 +17°C° 0.3 mm 2 mps 730 mmHg 98%
    01:00 +17°C° 0 mm 3 mps 730 mmHg 98%
    02:00 +17°C° 0 mm 3 mps 730 mmHg 98%
    03:00 +18°C° 0 mm 3 mps 730 mmHg 98%
    04:00 +18°C° 0 mm 3 mps 730 mmHg 98%
    05:00 +18°C° 0 mm 2 mps 730 mmHg 97%
    06:00 +19°C° 0 mm 2 mps 730 mmHg 97%
    07:00 +19°C° 0 mm 2 mps 730 mmHg 95%
    08:00 +19°C° 0 mm 2 mps 729 mmHg 93%
    09:00 +19°C° 0 mm 3 mps 728 mmHg 91%
    10:00 +20°C° 0 mm 3 mps 728 mmHg 84%
    11:00 +20°C° 0 mm 3 mps 727 mmHg 78%
    12:00 +20°C° 0 mm 4 mps 727 mmHg 72%
    13:00 +19°C° 0 mm 3 mps 726 mmHg 74%
    14:00 +19°C° 0 mm 3 mps 725 mmHg 76%
    15:00 +18°C° 0 mm 3 mps 724 mmHg 79%
    16:00 +16°C° 2.5 mm 3 mps 724 mmHg 85%
    17:00 +14°C° 2.5 mm 3 mps 723 mmHg 92%
    18:00 +12°C° 2.5 mm 3 mps 722 mmHg 99%
    19:00 +12°C° 5.1 mm 3 mps 721 mmHg 99%
    20:00 +12°C° 5.1 mm 3 mps 719 mmHg 99%
    21:00 +13°C° 5.1 mm 3 mps 718 mmHg 99%
    22:00 +14°C° 2.8 mm 2 mps 717 mmHg 99%
    23:00 +14°C° 2.8 mm 2 mps 716 mmHg 99%

    10 June, Wednesday

    Time Temperature Precipitation Wind Pressure Humidity
    00:00 +14°C° 2.8 mm 1 mps 714 mmHg 99%
    01:00 +13°C° 0.2 mm 3 mps 715 mmHg 98%
    02:00 +13°C° 0.2 mm 5 mps 716 mmHg 97%
    03:00 +13°C° 0.2 mm 6 mps 716 mmHg 96%
    04:00 +12°C° 0.7 mm 7 mps 717 mmHg 94%
    05:00 +11°C° 0.7 mm 8 mps 717 mmHg 93%
    06:00 +11°C° 0.7 mm 9 mps 718 mmHg 91%
    07:00 +11°C° 0.2 mm 9 mps 719 mmHg 84%
    08:00 +12°C° 0.2 mm 9 mps 720 mmHg 78%
    09:00 +12°C° 0.2 mm 9 mps 721 mmHg 71%
    10:00 +12°C° 0 mm 9 mps 722 mmHg 68%
    11:00 +13°C° 0 mm 9 mps 723 mmHg 66%
    12:00 +13°C° 0 mm 9 mps 724 mmHg 63%
    13:00 +13°C° 0 mm 8 mps 724 mmHg 61%
    14:00 +13°C° 0 mm 8 mps 725 mmHg 59%
    15:00 +15°C° 0 mm 8 mps 726 mmHg 57%
    16:00 +14°C° 0 mm 7 mps 726 mmHg 57%
    17:00 +14°C° 0 mm 7 mps 726 mmHg 57%
    18:00 +14°C° 0 mm 7 mps 727 mmHg 57%
    19:00 +13°C° 0 mm 6 mps 727 mmHg 62%
    20:00 +13°C° 0 mm 6 mps 727 mmHg 66%
    21:00 +11°C° 0 mm 6 mps 728 mmHg 70%
    22:00 +10°C° 0.2 mm 5 mps 728 mmHg 76%
    23:00 +8°C° 0.2 mm 5 mps 728 mmHg 83%
    Show more